Theta_e
344 353 356 363 364 365 365 364 365 365 365 365 364 363 363 363 363 364 364 363 362 362 362 361 358 357 357 357 356 356 356 358 359 360 360 356 355 357 358 358 358 356 361
346 354 359 364 367 367 365 364 365 365 365 364 365 364 363 363 364 364 363 363 363 362 360 361 358 357 358 358 356 352 355 355 357 359 359 357 358 359 359 360 361 358 360
347 353 358 365 367 367 366 365 365 365 364 363 364 363 362 362 364 363 363 361 361 361 361 360 359 358 358 358 357 352 351 355 356 354 356 353 353 359 358 361 360 359 359
347 351 357 363 366 365 367 367 366 364 364 364 365 364 363 363 362 359 359 360 361 360 360 359 359 358 358 357 356 354 351 354 356 355 352 352 351 359 358 357 358 359 360
349 357 362 364 365 367 366 366 366 365 364 365 364 363 362 362 362 361 360 359 359 359 359 359 358 358 357 357 357 355 353 352 356 355 352 353 350 357 357 355 354 357 360
352 356 361 364 365 365 366 366 366 363 365 365 363 361 361 361 361 361 361 361 360 359 358 358 357 357 356 356 356 355 356 356 355 354 351 349 350 357 358 358 358 358 358
351 356 360 365 366 365 366 366 364 365 364 364 362 361 361 362 361 362 361 361 360 359 359 358 358 358 358 357 357 356 357 358 356 353 349 352 354 359 358 357 357 357 358
351 354 358 364 367 366 366 365 366 364 363 363 362 361 360 361 361 362 362 361 359 358 358 358 358 358 358 358 358 356 356 357 349 353 353 353 359 361 358 357 358 357 357
349 353 357 356 362 365 366 363 364 363 362 361 361 360 360 360 360 361 360 360 359 359 358 357 357 357 358 359 357 356 355 357 357 352 353 354 360 357 358 358 358 358 357
347 351 356 357 362 359 358 363 362 362 362 361 361 361 360 360 360 360 364 362 359 358 358 357 357 358 356 359 358 357 358 362 350 352 352 354 360 357 357 359 357 357 357
347 349 351 352 359 358 359 359 362 362 361 361 361 361 361 361 360 360 364 364 360 359 358 358 359 356 357 359 360 359 358 355 354 353 352 358 359 358 353 357 356 355 357
343 346 349 349 352 355 350 359 360 358 358 360 361 358 360 363 363 358 361 366 364 363 361 359 359 357 358 356 355 359 355 352 350 350 353 360 361 359 356 355 357 354 352
342 344 346 351 354 352 353 356 356 355 358 360 364 355 361 359 360 361 359 358 361 362 359 355 354 353 358 357 357 356 354 348 353 350 357 360 360 358 357 355 356 355 353
343 344 347 354 358 358 357 353 354 353 355 358 364 371 370 364 359 351 355 359 355 359 354 353 352 355 355 353 355 350 352 349 351 348 354 360 360 360 358 355 356 356 355
344 345 348 356 361 368 364 356 353 358 356 355 363 367 364 355 356 360 357 354 359 354 353 351 359 356 350 351 356 351 347 344 351 348 348 359 360 359 358 356 355 356 355
348 347 350 355 360 364 367 372 363 367 358 362 361 362 369 363 361 352 362 356 358 358 356 358 364 360 362 358 357 354 348 350 350 351 349 353 361 360 361 358 356 356 356
349 348 350 352 357 362 365 366 367 365 354 358 362 366 366 368 370 366 360 357 362 363 365 362 363 355 347 353 350 353 343 350 349 350 349 349 355 361 361 361 360 359 357
346 349 352 348 354 359 362 365 362 360 358 360 358 359 365 368 373 371 358 359 362 361 354 361 353 356 354 348 349 349 347 348 350 350 350 349 350 350 359 361 361 360 357
348 351 352 353 353 357 363 363 361 363 365 362 360 361 365 367 370 367 356 352 353 357 359 360 350 360 351 350 342 347 344 342 346 342 342 348 349 348 348 358 358 357 356
350 354 353 354 360 359 360 363 360 359 361 360 362 361 366 368 368 367 361 355 362 361 355 358 357 358 354 349 335 341 343 346 341 346 346 341 344 346 347 348 354 351 358
350 353 353 357 362 359 357 355 356 351 357 359 361 364 368 371 371 371 367 363 363 362 363 363 360 359 344 350 346 342 344 343 342 344 343 343 349 346 348 348 351 348 350
348 351 354 356 361 361 358 358 356 358 355 354 358 364 368 367 372 370 368 363 368 356 360 364 361 349 354 350 342 342 336 339 342 341 346 343 343 343 343 345 350 354 351
347 351 354 357 363 362 361 361 363 362 362 355 354 356 362 367 370 371 368 366 366 367 360 363 361 358 343 348 349 344 331 327 338 343 342 342 342 343 342 345 348 353 353
347 351 355 358 360 361 363 357 358 349 347 349 354 356 360 365 367 370 369 368 369 367 360 360 363 363 359 347 344 343 348 349 337 331 341 343 345 341 343 345 347 346 345
347 350 353 358 359 362 359 362 355 354 350 355 354 358 364 367 367 367 369 369 369 365 364 359 363 363 363 353 343 344 345 346 346 341 333 339 343 345 346 346 345 344 347
346 349 353 357 358 361 362 359 363 355 355 348 354 354 358 360 364 367 368 368 368 366 367 365 365 365 363 361 356 350 343 338 339 337 336 339 338 344 345 344 346 345 344
Wind_Speed
5 4 3 11 14 16 17 16 14 13 14 12 11 13 12 12 12 12 11 12 13 11 12 13 12 12 12 11 11 10 9 9 10 12 12 12 10 9 10 5 3 13 13
12 11 5 12 15 16 16 15 13 13 12 10 13 11 11 11 12 11 12 12 12 12 12 12 12 11 11 11 10 7 5 7 8 9 11 13 11 12 12 16 17 12 12
14 13 11 11 15 16 16 15 14 13 10 12 12 13 12 12 12 12 13 13 11 12 12 11 11 10 9 9 8 6 5 6 7 4 4 4 8 12 12 14 15 13 12
16 14 12 11 15 17 16 15 13 13 12 12 11 12 11 11 11 12 12 11 11 11 11 10 9 9 8 8 6 4 4 7 12 15 3 3 10 11 12 12 12 11 12
16 14 13 14 15 17 15 14 13 12 13 12 12 11 11 11 12 10 9 11 10 10 9 9 8 8 7 6 5 1 1 5 13 13 5 3 9 10 10 9 11 10 11
15 15 15 16 17 16 15 13 12 13 13 12 11 11 11 10 10 9 10 10 9 9 8 7 7 7 6 6 5 2 4 2 2 6 7 13 10 11 11 10 12 12 11
17 16 14 15 15 15 14 12 13 13 12 11 10 10 10 10 9 8 10 10 9 9 8 8 7 7 6 5 4 4 5 7 5 7 10 11 9 11 11 12 10 10 11
17 18 15 15 15 14 13 13 13 12 12 11 10 9 9 8 8 9 9 9 9 8 8 7 7 6 6 5 5 3 4 7 2 8 11 8 11 12 12 10 11 10 10
21 17 13 13 14 14 13 12 12 12 11 10 9 9 9 9 9 8 9 8 7 6 6 6 5 4 5 5 4 4 4 4 6 8 12 7 12 12 11 11 10 10 10
20 17 13 12 12 11 11 12 12 10 10 10 10 9 8 8 8 9 8 7 7 5 4 5 5 5 3 5 6 6 8 9 5 8 9 7 12 12 10 10 10 10 10
18 17 16 14 12 11 11 10 10 10 9 10 9 10 9 5 8 11 7 10 7 5 3 2 5 2 3 5 7 8 9 1 3 8 7 12 11 12 10 9 8 8 9
20 18 16 15 14 13 11 10 8 9 8 7 6 4 7 6 4 7 9 9 8 8 6 2 7 2 9 3 5 9 4 8 6 7 7 12 10 11 10 8 8 8 7
19 16 18 14 13 13 11 8 6 6 6 5 8 11 8 2 4 3 4 4 3 5 3 6 5 2 7 3 5 6 2 8 4 4 8 11 11 10 9 7 8 7 6
16 16 18 15 9 7 8 7 8 6 5 6 4 2 3 2 6 2 2 3 4 5 6 5 3 3 4 8 9 6 6 7 5 5 9 13 11 10 10 8 8 7 6
13 14 16 15 8 3 4 6 5 4 3 6 6 4 2 5 1 4 4 5 3 4 4 4 3 6 6 5 6 4 4 7 9 4 4 11 14 11 9 9 8 7 6
14 15 17 16 10 5 3 5 2 2 4 2 4 6 2 4 3 2 0 4 5 4 6 3 1 4 2 6 2 5 6 11 10 8 5 5 8 10 11 9 8 8 8
16 15 17 15 14 8 6 4 2 2 4 3 2 7 3 3 3 4 2 4 4 5 6 4 3 3 1 3 3 4 5 5 5 9 8 6 6 9 10 11 10 8 7
17 15 15 15 16 12 7 5 4 5 4 4 4 6 6 4 1 2 4 4 6 2 3 2 4 2 3 3 1 2 5 5 4 4 8 7 8 7 7 8 10 10 9
17 16 13 13 16 16 10 7 7 7 3 3 3 4 8 6 4 3 5 5 7 1 2 1 2 2 3 1 3 2 3 5 6 5 5 7 10 8 6 9 8 8 10
16 15 14 12 10 15 9 7 7 5 4 4 3 3 8 5 6 5 7 8 6 4 3 1 1 2 1 2 6 3 1 3 6 5 5 2 4 9 8 8 5 6 8
17 16 16 11 10 12 10 9 7 7 5 4 4 5 9 4 5 4 2 5 4 3 5 3 3 1 3 1 1 1 2 2 3 5 4 3 1 11 9 8 4 3 5
19 18 17 14 13 11 9 8 7 6 6 6 5 5 5 7 5 5 4 4 4 2 2 2 1 2 3 3 1 3 3 1 3 4 5 5 4 5 5 7 8 6 5
20 19 18 16 13 12 11 6 6 5 4 6 6 6 7 6 6 7 6 4 5 4 4 3 3 4 0 2 1 2 3 2 3 3 3 4 3 3 5 5 6 7 5
19 19 19 18 15 14 12 11 9 8 8 6 6 6 7 11 8 8 9 7 4 3 7 6 5 2 3 3 1 3 1 1 1 2 1 4 4 4 6 5 6 5 4
21 20 18 18 17 15 15 11 11 10 8 6 5 8 8 9 9 8 9 7 6 4 5 5 5 2 2 1 3 3 2 2 2 2 2 2 3 4 5 4 6 5 5
19 20 19 19 18 17 16 17 12 14 10 9 7 6 7 6 9 9 8 9 8 6 5 3 5 5 3 3 1 1 3 2 2 2 3 4 5 5 4 5 6 6 5
Wind_Direction
170 170 178 124 126 127 121 123 116 106 102 100 97 94 89 86 86 90 89 90 92 93 94 92 88 86 83 78 73 73 80 84 89 90 89 81 77 65 42 29 165 86 85
158 141 161 128 120 117 122 123 117 109 106 111 112 104 90 88 85 92 92 94 99 102 98 95 92 89 90 87 83 83 91 108 105 116 119 103 84 71 63 61 77 90 90
158 125 139 125 119 121 123 122 121 114 118 99 96 91 97 94 91 87 91 90 95 98 96 100 101 102 100 93 90 99 128 78 67 82 146 98 100 84 84 83 88 94 93
143 140 130 134 126 125 122 123 124 119 110 110 98 94 91 90 90 89 91 92 94 97 104 103 107 107 108 106 105 97 107 105 71 344 319 322 97 90 89 93 95 99 102
138 122 122 138 133 124 126 124 125 124 118 112 105 102 102 98 92 89 96 101 101 101 104 109 112 113 110 106 108 135 136 124 130 193 209 133 101 96 90 103 108 88 111
128 138 137 142 129 126 125 125 131 128 121 115 112 110 102 96 97 99 107 98 104 103 105 107 109 113 116 123 136 206 285 313 189 180 106 72 79 97 84 92 95 92 96
150 133 141 136 129 128 127 133 128 122 125 120 120 115 111 108 101 105 103 99 101 104 104 104 108 109 105 114 120 195 255 278 281 118 105 96 99 97 93 95 98 105 101
144 143 139 135 133 134 140 135 130 131 128 129 129 126 124 118 115 111 110 111 111 109 105 105 107 108 106 113 120 162 234 271 12 99 96 99 106 105 103 109 111 107 106
140 130 139 143 143 136 132 133 136 134 138 140 144 147 151 150 147 137 127 120 114 112 117 123 123 112 123 132 157 189 218 225 274 134 117 116 114 110 111 112 117 115 110
137 144 147 149 149 147 149 147 145 145 153 160 168 171 175 174 164 151 146 135 142 149 152 160 131 111 140 193 194 203 228 228 198 104 97 119 126 124 124 126 116 117 118
138 152 152 161 154 151 140 152 150 163 172 187 188 194 182 211 184 164 141 152 150 147 192 152 94 141 195 236 244 227 221 350 349 105 109 131 128 135 133 128 126 124 111
145 159 157 166 163 162 158 151 175 180 190 205 151 19 254 165 212 179 160 164 165 174 178 99 79 311 227 239 201 231 253 114 228 98 115 135 131 138 138 139 137 128 124
156 171 159 164 169 179 132 174 179 182 194 188 162 186 222 154 162 195 151 149 183 185 208 87 334 267 265 226 261 209 202 85 100 97 126 133 137 144 151 153 148 149 143
172 176 160 146 171 151 157 180 186 186 200 171 163 226 123 144 91 287 54 62 28 36 77 188 213 172 162 289 275 54 163 111 136 132 155 150 148 156 159 160 168 171 169
185 179 151 141 155 186 160 202 195 172 191 127 140 194 298 90 207 138 175 155 169 126 78 215 175 130 161 236 273 33 142 123 120 139 132 173 158 162 169 171 174 178 185
193 177 148 143 150 170 234 306 303 190 202 185 158 150 212 127 188 185 101 149 151 160 172 220 128 114 201 207 227 317 38 117 136 139 138 177 181 174 175 177 180 187 193
196 168 150 154 150 170 212 253 255 195 180 201 125 144 179 183 148 83 19 16 151 179 172 187 98 124 310 296 172 270 108 117 142 141 162 143 183 202 190 182 182 184 198
176 165 159 175 159 169 188 199 235 247 230 188 196 143 169 217 194 101 79 41 335 10 38 160 138 147 225 207 99 283 119 139 159 156 151 176 174 179 199 200 187 182 190
171 162 173 180 163 164 183 190 219 240 256 209 205 173 171 181 182 213 98 121 268 172 249 169 83 319 298 328 176 130 87 188 182 162 143 184 169 154 173 185 190 189 182
167 162 174 173 168 161 173 201 191 244 194 269 222 227 161 180 190 190 163 174 225 197 238 76 109 300 151 49 41 45 261 343 135 166 119 100 120 154 160 149 184 187 189
172 167 172 178 183 164 171 185 209 206 192 211 253 232 176 177 188 200 231 161 228 140 150 167 157 263 2 75 61 220 68 177 330 111 128 179 95 154 138 158 168 134 180
175 173 174 185 178 174 178 182 199 194 202 199 208 225 180 182 206 180 165 193 215 170 134 211 116 84 290 114 230 182 157 260 250 102 108 181 155 135 114 136 164 173 166
178 175 177 182 180 182 178 186 188 204 224 188 205 208 188 204 203 207 182 245 162 177 160 210 190 194 303 212 163 38 27 203 139 132 109 84 66 109 126 137 116 157 164
182 179 175 179 185 182 195 185 196 203 205 222 189 201 194 192 204 189 167 203 179 231 151 193 196 169 200 210 143 215 87 119 115 142 128 147 157 162 151 168 144 124 133
183 180 179 178 184 186 193 215 191 202 213 201 223 203 202 181 192 206 181 193 178 208 197 190 124 178 211 187 214 153 176 277 146 108 184 160 216 172 175 176 155 154 166
185 180 179 180 185 189 191 205 216 194 209 209 207 221 193 186 190 198 203 180 185 204 210 182 164 162 228 311 312 267 156 198 206 180 209 200 193 173 175 191 150 165 172